Year,Month,Day,Hour,Minute,Value (Times are PST for temperature in C)
2016,05,08,00,00,12.10
2016,05,08,00,01,12.10
2016,05,08,00,02,12.10
2016,05,08,00,03,12.00
2016,05,08,00,04,12.00
2016,05,08,00,05,12.00
2016,05,08,00,06,11.90
2016,05,08,00,07,11.90
2016,05,08,00,08,11.90
2016,05,08,00,09,11.80
2016,05,08,00,10,11.80
2016,05,08,00,11,11.80
2016,05,08,00,12,11.80
2016,05,08,00,13,11.80
2016,05,08,00,14,11.70
2016,05,08,00,15,11.70
2016,05,08,00,16,11.70
2016,05,08,00,17,11.70
2016,05,08,00,18,11.70
2016,05,08,00,19,11.70
2016,05,08,00,20,11.70
2016,05,08,00,21,11.70
2016,05,08,00,22,11.60
2016,05,08,00,23,11.60
2016,05,08,00,24,11.60
2016,05,08,00,25,11.60
2016,05,08,00,26,11.60
2016,05,08,00,27,11.60
2016,05,08,00,28,11.60
2016,05,08,00,29,11.60
2016,05,08,00,30,11.60
2016,05,08,00,31,11.60
2016,05,08,00,32,11.60
2016,05,08,00,33,11.50
2016,05,08,00,34,11.50
2016,05,08,00,35,11.50
2016,05,08,00,36,11.50
2016,05,08,00,37,11.50
2016,05,08,00,38,11.40
2016,05,08,00,39,11.40
2016,05,08,00,40,11.40
2016,05,08,00,41,11.40
2016,05,08,00,42,11.40
2016,05,08,00,43,11.40
2016,05,08,00,44,11.40
2016,05,08,00,45,11.40
2016,05,08,00,46,11.30
2016,05,08,00,47,11.30
2016,05,08,00,48,11.30
2016,05,08,00,49,11.30
2016,05,08,00,50,11.30
2016,05,08,00,51,11.30
2016,05,08,00,52,11.30
2016,05,08,00,53,11.30
2016,05,08,00,54,11.30
2016,05,08,00,55,11.30
2016,05,08,00,56,11.30
2016,05,08,00,57,11.30
2016,05,08,00,58,11.20
2016,05,08,00,59,11.20
2016,05,08,01,00,11.20
2016,05,08,01,01,11.20
2016,05,08,01,02,11.20
2016,05,08,01,03,11.20
2016,05,08,01,04,11.20
2016,05,08,01,05,11.20
2016,05,08,01,06,11.20
2016,05,08,01,07,11.10
2016,05,08,01,08,11.10
2016,05,08,01,09,11.10
2016,05,08,01,10,11.10
2016,05,08,01,11,11.10
2016,05,08,01,12,11.10
2016,05,08,01,13,11.10
2016,05,08,01,14,11.10
2016,05,08,01,15,11.10
2016,05,08,01,16,11.10
2016,05,08,01,17,11.10
2016,05,08,01,18,11.10
2016,05,08,01,19,11.10
2016,05,08,01,20,11.10
2016,05,08,01,21,11.10
2016,05,08,01,22,11.10
2016,05,08,01,23,11.10
2016,05,08,01,24,11.10
2016,05,08,01,25,11.10
2016,05,08,01,26,11.10
2016,05,08,01,27,11.10
2016,05,08,01,28,11.10
2016,05,08,01,29,11.10
2016,05,08,01,30,11.10
2016,05,08,01,31,11.10
2016,05,08,01,32,11.10
2016,05,08,01,33,11.10
2016,05,08,01,34,11.10
2016,05,08,01,35,11.00
2016,05,08,01,36,11.00
2016,05,08,01,37,11.00
2016,05,08,01,38,11.00
2016,05,08,01,39,11.00
2016,05,08,01,40,11.00
2016,05,08,01,41,10.90
2016,05,08,01,42,10.90
2016,05,08,01,43,10.90
2016,05,08,01,44,10.90
2016,05,08,01,45,10.90
2016,05,08,01,46,10.90
2016,05,08,01,47,10.90
2016,05,08,01,48,10.90
2016,05,08,01,49,10.90
2016,05,08,01,50,10.90
2016,05,08,01,51,10.90
2016,05,08,01,52,10.90
2016,05,08,01,53,10.90
2016,05,08,01,54,10.90
2016,05,08,01,55,10.90
2016,05,08,01,56,10.90
2016,05,08,01,57,10.90
2016,05,08,01,58,10.90
2016,05,08,01,59,10.90
2016,05,08,02,00,10.90
2016,05,08,02,01,10.90
2016,05,08,02,02,10.90
2016,05,08,02,03,10.90
2016,05,08,02,04,10.90
2016,05,08,02,05,10.90
2016,05,08,02,06,10.90
2016,05,08,02,07,10.80
2016,05,08,02,08,10.80
2016,05,08,02,09,10.80
2016,05,08,02,10,10.80
2016,05,08,02,11,10.80
2016,05,08,02,12,10.80
2016,05,08,02,13,10.80
2016,05,08,02,14,10.80
2016,05,08,02,15,10.80
2016,05,08,02,16,10.80
2016,05,08,02,17,10.80
2016,05,08,02,18,10.80
2016,05,08,02,19,10.80
2016,05,08,02,20,10.80
2016,05,08,02,21,10.70
2016,05,08,02,22,10.70
2016,05,08,02,23,10.70
2016,05,08,02,24,10.70
2016,05,08,02,25,10.70
2016,05,08,02,26,10.70
2016,05,08,02,27,10.70
2016,05,08,02,28,10.70
2016,05,08,02,29,10.70
2016,05,08,02,30,10.70
2016,05,08,02,31,10.70
2016,05,08,02,32,10.70
2016,05,08,02,33,10.70
2016,05,08,02,34,10.60
2016,05,08,02,35,10.60
2016,05,08,02,36,10.60
2016,05,08,02,37,10.60
2016,05,08,02,38,10.60
2016,05,08,02,39,10.60
2016,05,08,02,40,10.60
2016,05,08,02,41,10.60
2016,05,08,02,42,10.60
2016,05,08,02,43,10.60
2016,05,08,02,44,10.60
2016,05,08,02,45,10.60
2016,05,08,02,46,10.60
2016,05,08,02,47,10.60
2016,05,08,02,48,10.60
2016,05,08,02,49,10.60
2016,05,08,02,50,10.60
2016,05,08,02,51,10.60
2016,05,08,02,52,10.70
2016,05,08,02,53,10.70
2016,05,08,02,54,10.70
2016,05,08,02,55,10.70
2016,05,08,02,56,10.70
2016,05,08,02,57,10.70
2016,05,08,02,58,10.70
2016,05,08,02,59,10.70
2016,05,08,03,00,10.70
2016,05,08,03,01,10.70
2016,05,08,03,02,10.70
2016,05,08,03,03,10.70
2016,05,08,03,04,10.70
2016,05,08,03,05,10.70
2016,05,08,03,06,10.70
2016,05,08,03,07,10.70
2016,05,08,03,08,10.70
2016,05,08,03,09,10.70
2016,05,08,03,10,10.70
2016,05,08,03,11,10.70
2016,05,08,03,12,10.70
2016,05,08,03,13,10.70
2016,05,08,03,14,10.70
2016,05,08,03,15,10.70
2016,05,08,03,16,10.70
2016,05,08,03,17,10.70
2016,05,08,03,18,10.70
2016,05,08,03,19,10.70
2016,05,08,03,20,10.70
2016,05,08,03,21,10.70
2016,05,08,03,22,10.70
2016,05,08,03,23,10.70
2016,05,08,03,24,10.70
2016,05,08,03,25,10.70
2016,05,08,03,26,10.70
2016,05,08,03,27,10.70
2016,05,08,03,28,10.70
2016,05,08,03,29,10.70
2016,05,08,03,30,10.70
2016,05,08,03,31,10.60
2016,05,08,03,32,10.60
2016,05,08,03,33,10.60
2016,05,08,03,34,10.60
2016,05,08,03,35,10.60
2016,05,08,03,36,10.60
2016,05,08,03,37,10.60
2016,05,08,03,38,10.60
2016,05,08,03,39,10.60
2016,05,08,03,40,10.60
2016,05,08,03,41,10.60
2016,05,08,03,42,10.60
2016,05,08,03,43,10.60
2016,05,08,03,44,10.60
2016,05,08,03,45,10.60
2016,05,08,03,46,10.60
2016,05,08,03,47,10.60
2016,05,08,03,48,10.60
2016,05,08,03,49,10.60
2016,05,08,03,50,10.60
2016,05,08,03,51,10.60
2016,05,08,03,52,10.60
2016,05,08,03,53,10.60
2016,05,08,03,54,10.60
2016,05,08,03,55,10.60
2016,05,08,03,56,10.60
2016,05,08,03,57,10.60
2016,05,08,03,58,10.60
2016,05,08,03,59,10.60
2016,05,08,04,00,10.60
2016,05,08,04,01,10.60
2016,05,08,04,02,10.60
2016,05,08,04,03,10.60
2016,05,08,04,04,10.60
2016,05,08,04,05,10.60
2016,05,08,04,06,10.60
2016,05,08,04,07,10.60
2016,05,08,04,08,10.60
2016,05,08,04,09,10.60
2016,05,08,04,10,10.60
2016,05,08,04,11,10.60
2016,05,08,04,12,10.50
2016,05,08,04,13,10.50
2016,05,08,04,14,10.50
2016,05,08,04,15,10.50
2016,05,08,04,16,10.50
2016,05,08,04,17,10.50
2016,05,08,04,18,10.50
2016,05,08,04,19,10.50
2016,05,08,04,20,10.50
2016,05,08,04,21,10.50
2016,05,08,04,22,10.50
2016,05,08,04,23,10.50
2016,05,08,04,24,10.50
2016,05,08,04,25,10.40
2016,05,08,04,26,10.40
2016,05,08,04,27,10.40
2016,05,08,04,28,10.40
2016,05,08,04,29,10.40
2016,05,08,04,30,10.40
2016,05,08,04,31,10.40
2016,05,08,04,32,10.40
2016,05,08,04,33,10.40
2016,05,08,04,34,10.40
2016,05,08,04,35,10.40
2016,05,08,04,36,10.40
2016,05,08,04,37,10.40
2016,05,08,04,38,10.40
2016,05,08,04,39,10.40
2016,05,08,04,40,10.40
2016,05,08,04,41,10.30
2016,05,08,04,42,10.30
2016,05,08,04,43,10.30
2016,05,08,04,44,10.30
2016,05,08,04,45,10.30
2016,05,08,04,46,10.30
2016,05,08,04,47,10.30
2016,05,08,04,48,10.30
2016,05,08,04,49,10.30
2016,05,08,04,50,10.30
2016,05,08,04,51,10.30
2016,05,08,04,52,10.20
2016,05,08,04,53,10.20
2016,05,08,04,54,10.20
2016,05,08,04,55,10.20
2016,05,08,04,56,10.20
2016,05,08,04,57,10.20
2016,05,08,04,58,10.20
2016,05,08,04,59,10.20
2016,05,08,05,00,10.10
2016,05,08,05,01,10.10
2016,05,08,05,02,10.10
2016,05,08,05,03,10.10
2016,05,08,05,04,10.10
2016,05,08,05,05,10.10
2016,05,08,05,06,10.10
2016,05,08,05,07,10.10
2016,05,08,05,08,10.00
2016,05,08,05,09,10.00
2016,05,08,05,10,10.00
2016,05,08,05,11,10.00
2016,05,08,05,12,9.90
2016,05,08,05,13,9.90
2016,05,08,05,14,9.90
2016,05,08,05,15,9.90
2016,05,08,05,16,9.90
2016,05,08,05,17,9.80
2016,05,08,05,18,9.80
2016,05,08,05,19,9.80
2016,05,08,05,20,9.70
2016,05,08,05,21,9.70
2016,05,08,05,22,9.70
2016,05,08,05,23,9.70
2016,05,08,05,24,9.60
2016,05,08,05,25,9.60
2016,05,08,05,26,9.60
2016,05,08,05,27,9.60
2016,05,08,05,28,9.60
2016,05,08,05,29,9.50
2016,05,08,05,30,9.50
2016,05,08,05,31,9.50
2016,05,08,05,32,9.40
2016,05,08,05,33,9.40
2016,05,08,05,34,9.40
2016,05,08,05,35,9.40
2016,05,08,05,36,9.40
2016,05,08,05,37,9.40
2016,05,08,05,38,9.40
2016,05,08,05,39,9.40
2016,05,08,05,40,9.40
2016,05,08,05,41,9.30
2016,05,08,05,42,9.30
2016,05,08,05,43,9.30
2016,05,08,05,44,9.30
2016,05,08,05,45,9.30
2016,05,08,05,46,9.30
2016,05,08,05,47,9.30
2016,05,08,05,48,9.30
2016,05,08,05,49,9.30
2016,05,08,05,50,9.30
2016,05,08,05,51,9.30
2016,05,08,05,52,9.40
2016,05,08,05,53,9.40
2016,05,08,05,54,9.40
2016,05,08,05,55,9.40
2016,05,08,05,56,9.40
2016,05,08,05,57,9.40
2016,05,08,05,58,9.40
2016,05,08,05,59,9.40
2016,05,08,06,00,9.40
2016,05,08,06,01,9.40
2016,05,08,06,02,9.40
2016,05,08,06,03,9.40
2016,05,08,06,04,9.40
2016,05,08,06,05,9.40
2016,05,08,06,06,9.40
2016,05,08,06,07,9.40
2016,05,08,06,08,9.40
2016,05,08,06,09,9.40
2016,05,08,06,10,9.40
2016,05,08,06,11,9.40
2016,05,08,06,12,9.40
2016,05,08,06,13,9.40
2016,05,08,06,14,9.40
2016,05,08,06,15,9.40
2016,05,08,06,16,9.40
2016,05,08,06,17,9.40
2016,05,08,06,18,9.40
2016,05,08,06,19,9.40
2016,05,08,06,20,9.40
2016,05,08,06,21,9.40
2016,05,08,06,22,9.40
2016,05,08,06,23,9.40
2016,05,08,06,24,9.40
2016,05,08,06,25,9.40
2016,05,08,06,26,9.40
2016,05,08,06,27,9.50
2016,05,08,06,28,9.50
2016,05,08,06,29,9.50
2016,05,08,06,30,9.50
2016,05,08,06,31,9.50
2016,05,08,06,32,9.50
2016,05,08,06,33,9.50
2016,05,08,06,34,9.50
2016,05,08,06,35,9.50
2016,05,08,06,36,9.50
2016,05,08,06,37,9.50
2016,05,08,06,38,9.50
2016,05,08,06,39,9.50
2016,05,08,06,40,9.60
2016,05,08,06,41,9.60
2016,05,08,06,42,9.60
2016,05,08,06,43,9.60
2016,05,08,06,44,9.60
2016,05,08,06,45,9.60
2016,05,08,06,46,9.60
2016,05,08,06,47,9.70
2016,05,08,06,48,9.70
2016,05,08,06,49,9.70
2016,05,08,06,50,9.70
2016,05,08,06,51,9.80
2016,05,08,06,52,9.80
2016,05,08,06,53,9.80
2016,05,08,06,54,9.80
2016,05,08,06,55,9.80
2016,05,08,06,56,9.90
2016,05,08,06,57,9.90
2016,05,08,06,58,9.90
2016,05,08,06,59,10.00
2016,05,08,07,00,10.00
2016,05,08,07,01,10.00
2016,05,08,07,02,10.10
2016,05,08,07,03,10.10
2016,05,08,07,04,10.10
2016,05,08,07,05,10.10
2016,05,08,07,06,10.20
2016,05,08,07,07,10.20
2016,05,08,07,08,10.20
2016,05,08,07,09,10.20
2016,05,08,07,10,10.20
2016,05,08,07,11,10.20
2016,05,08,07,12,10.20
2016,05,08,07,13,10.20
2016,05,08,07,14,10.30
2016,05,08,07,15,10.30
2016,05,08,07,16,10.30
2016,05,08,07,17,10.30
2016,05,08,07,18,10.30
2016,05,08,07,19,10.30
2016,05,08,07,20,10.30
2016,05,08,07,21,10.30
2016,05,08,07,22,10.30
2016,05,08,07,23,10.40
2016,05,08,07,24,10.40
2016,05,08,07,25,10.40
2016,05,08,07,26,10.40
2016,05,08,07,27,10.40
2016,05,08,07,28,10.40
2016,05,08,07,29,10.40
2016,05,08,07,30,10.40
2016,05,08,07,31,10.40
2016,05,08,07,32,10.40
2016,05,08,07,33,10.40
2016,05,08,07,34,10.30
2016,05,08,07,35,10.30
2016,05,08,07,36,10.30
2016,05,08,07,37,10.30
2016,05,08,07,38,10.30
2016,05,08,07,39,10.30
2016,05,08,07,40,10.30
2016,05,08,07,41,10.30
2016,05,08,07,42,10.30
2016,05,08,07,43,10.30
2016,05,08,07,44,10.30
2016,05,08,07,45,10.30
2016,05,08,07,46,10.30
2016,05,08,07,47,10.30
2016,05,08,07,48,10.30
2016,05,08,07,49,10.30
2016,05,08,07,50,10.30
2016,05,08,07,51,10.30
2016,05,08,07,52,10.40
2016,05,08,07,53,10.40
2016,05,08,07,54,10.50
2016,05,08,07,55,10.60
2016,05,08,07,56,10.60
2016,05,08,07,57,10.80
2016,05,08,07,58,11.00
2016,05,08,07,59,11.20
2016,05,08,08,00,11.30
2016,05,08,08,01,11.40
2016,05,08,08,02,11.70
2016,05,08,08,03,11.90
2016,05,08,08,04,12.00
2016,05,08,08,05,12.20
2016,05,08,08,06,12.50
2016,05,08,08,07,12.60
2016,05,08,08,08,12.60
2016,05,08,08,09,12.70
2016,05,08,08,10,13.10
2016,05,08,08,11,13.20
2016,05,08,08,12,13.30
2016,05,08,08,13,13.50
2016,05,08,08,14,13.50
2016,05,08,08,15,13.70
2016,05,08,08,16,13.80
2016,05,08,08,17,13.90
2016,05,08,08,18,14.00
2016,05,08,08,19,14.00
2016,05,08,08,20,14.10
2016,05,08,08,21,14.20
2016,05,08,08,22,14.20
2016,05,08,08,23,14.30
2016,05,08,08,24,14.40
2016,05,08,08,25,14.50
2016,05,08,08,26,14.50
2016,05,08,08,27,14.60
2016,05,08,08,28,14.70
2016,05,08,08,29,14.70
2016,05,08,08,30,14.80
2016,05,08,08,31,14.90
2016,05,08,08,32,15.00
2016,05,08,08,33,15.00
2016,05,08,08,34,14.90
2016,05,08,08,35,14.80
2016,05,08,08,36,14.70
2016,05,08,08,37,14.60
2016,05,08,08,38,14.50
2016,05,08,08,39,14.40
2016,05,08,08,40,14.30
2016,05,08,08,41,14.30
2016,05,08,08,42,14.20
2016,05,08,08,43,14.10
2016,05,08,08,44,14.00
2016,05,08,08,45,13.90
2016,05,08,08,46,13.80
2016,05,08,08,47,13.80
2016,05,08,08,48,13.70
2016,05,08,08,49,13.70
2016,05,08,08,50,13.70
2016,05,08,08,51,13.70
2016,05,08,08,52,13.60
2016,05,08,08,53,13.60
2016,05,08,08,54,13.60
2016,05,08,08,55,13.60
2016,05,08,08,56,13.70
2016,05,08,08,57,13.70
2016,05,08,08,58,13.70
2016,05,08,08,59,13.70
2016,05,08,09,00,13.80
2016,05,08,09,01,13.80
2016,05,08,09,02,13.80
2016,05,08,09,03,13.90
2016,05,08,09,04,14.00
2016,05,08,09,05,14.00
2016,05,08,09,06,14.20
2016,05,08,09,07,14.30
2016,05,08,09,08,14.50
2016,05,08,09,09,14.70
2016,05,08,09,10,14.90
2016,05,08,09,11,15.00
2016,05,08,09,12,15.20
2016,05,08,09,13,15.40
2016,05,08,09,14,15.50
2016,05,08,09,15,15.70
2016,05,08,09,16,15.90
2016,05,08,09,17,16.00
2016,05,08,09,18,16.10
2016,05,08,09,19,16.20
2016,05,08,09,20,16.30
2016,05,08,09,21,16.40
2016,05,08,09,22,16.60
2016,05,08,09,23,16.70
2016,05,08,09,24,16.90
2016,05,08,09,25,17.10
2016,05,08,09,26,17.30
2016,05,08,09,27,17.40
2016,05,08,09,28,17.50
2016,05,08,09,29,17.50
2016,05,08,09,30,17.60
2016,05,08,09,31,17.70
2016,05,08,09,32,17.70
2016,05,08,09,33,17.80
2016,05,08,09,34,17.90
2016,05,08,09,35,18.00
2016,05,08,09,36,18.10
2016,05,08,09,37,18.20
2016,05,08,09,38,18.30
2016,05,08,09,39,18.30
2016,05,08,09,40,18.30
2016,05,08,09,41,18.30
2016,05,08,09,42,18.40
2016,05,08,09,43,18.40
2016,05,08,09,44,18.50
2016,05,08,09,45,18.70
2016,05,08,09,46,18.80
2016,05,08,09,47,18.90
2016,05,08,09,48,19.00
2016,05,08,09,49,19.00
2016,05,08,09,50,19.10
2016,05,08,09,51,19.00
2016,05,08,09,52,18.90
2016,05,08,09,53,18.90
2016,05,08,09,54,18.80
2016,05,08,09,55,18.70
2016,05,08,09,56,18.50
2016,05,08,09,57,18.40
2016,05,08,09,58,18.40
2016,05,08,09,59,18.20
2016,05,08,10,00,18.20
2016,05,08,10,01,18.20
2016,05,08,10,02,18.20
2016,05,08,10,03,18.20
2016,05,08,10,04,18.20
2016,05,08,10,05,18.30
2016,05,08,10,06,18.40
2016,05,08,10,07,18.40
2016,05,08,10,08,18.50
2016,05,08,10,09,18.60
2016,05,08,10,10,18.70
2016,05,08,10,11,18.80
2016,05,08,10,12,18.80
2016,05,08,10,13,19.10
2016,05,08,10,14,19.10
2016,05,08,10,15,19.20
2016,05,08,10,16,19.30
2016,05,08,10,17,19.40
2016,05,08,10,18,19.50
2016,05,08,10,19,19.60
2016,05,08,10,20,19.70
2016,05,08,10,21,19.60
2016,05,08,10,22,19.70
2016,05,08,10,23,19.70
2016,05,08,10,24,19.80
2016,05,08,10,25,19.80
2016,05,08,10,26,19.90
2016,05,08,10,27,19.90
2016,05,08,10,28,20.00
2016,05,08,10,29,20.00
2016,05,08,10,30,20.10
2016,05,08,10,31,20.20
2016,05,08,10,32,20.30
2016,05,08,10,33,20.40
2016,05,08,10,34,20.50
2016,05,08,10,35,20.70
2016,05,08,10,36,20.70
2016,05,08,10,37,20.70
2016,05,08,10,38,20.60
2016,05,08,10,39,20.50
2016,05,08,10,40,20.50
2016,05,08,10,41,20.50
2016,05,08,10,42,20.50
2016,05,08,10,43,20.50
2016,05,08,10,44,20.40
2016,05,08,10,45,20.40
2016,05,08,10,46,20.40
2016,05,08,10,47,20.30
2016,05,08,10,48,20.30
2016,05,08,10,49,20.30
2016,05,08,10,50,20.30
2016,05,08,10,51,20.30
2016,05,08,10,52,20.30
2016,05,08,10,53,20.30
2016,05,08,10,54,20.20
2016,05,08,10,55,20.20
2016,05,08,10,56,20.20
2016,05,08,10,57,20.20
2016,05,08,10,58,20.10
2016,05,08,10,59,20.10
2016,05,08,11,00,20.10
2016,05,08,11,01,20.10
2016,05,08,11,02,20.10
2016,05,08,11,03,20.10
2016,05,08,11,04,20.10
2016,05,08,11,05,20.10
2016,05,08,11,06,20.20
2016,05,08,11,07,20.30
2016,05,08,11,08,20.30
2016,05,08,11,09,20.20
2016,05,08,11,10,20.10
2016,05,08,11,11,19.90
2016,05,08,11,12,19.80
2016,05,08,11,13,19.80
2016,05,08,11,14,19.70
2016,05,08,11,15,19.60
2016,05,08,11,16,19.60
2016,05,08,11,17,19.50
2016,05,08,11,18,19.50
2016,05,08,11,19,19.30
2016,05,08,11,20,19.20
2016,05,08,11,21,19.20
2016,05,08,11,22,19.20
2016,05,08,11,23,19.20
2016,05,08,11,24,19.20
2016,05,08,11,25,19.10
2016,05,08,11,26,19.10
2016,05,08,11,27,19.10
2016,05,08,11,28,19.00
2016,05,08,11,29,18.90
2016,05,08,11,30,18.90
2016,05,08,11,31,18.90
2016,05,08,11,32,18.90
2016,05,08,11,33,18.90
2016,05,08,11,34,19.00
2016,05,08,11,35,19.00
2016,05,08,11,36,19.10
2016,05,08,11,37,19.20
2016,05,08,11,38,19.20
2016,05,08,11,39,19.30
2016,05,08,11,40,19.40
2016,05,08,11,41,19.40
2016,05,08,11,42,19.50
2016,05,08,11,43,19.60
2016,05,08,11,44,19.60
2016,05,08,11,45,19.70
2016,05,08,11,46,19.70
2016,05,08,11,47,19.80
2016,05,08,11,48,19.80
2016,05,08,11,49,19.90
2016,05,08,11,50,19.90
2016,05,08,11,51,20.00
2016,05,08,11,52,20.00
2016,05,08,11,53,19.90
2016,05,08,11,54,19.90
2016,05,08,11,55,19.90
2016,05,08,11,56,20.00
2016,05,08,11,57,20.00
2016,05,08,11,58,20.00
2016,05,08,11,59,20.00
2016,05,08,12,00,20.10
2016,05,08,12,01,20.20
2016,05,08,12,02,20.20
2016,05,08,12,03,20.20
2016,05,08,12,04,20.20
2016,05,08,12,05,20.20
2016,05,08,12,06,20.20
2016,05,08,12,07,20.20
2016,05,08,12,08,20.20
2016,05,08,12,09,20.20
2016,05,08,12,10,20.20
2016,05,08,12,11,20.20
2016,05,08,12,12,20.20
2016,05,08,12,13,20.20
2016,05,08,12,14,20.20
2016,05,08,12,15,20.20
2016,05,08,12,16,20.20
2016,05,08,12,17,20.20
2016,05,08,12,18,20.20
2016,05,08,12,19,20.20
2016,05,08,12,20,20.30
2016,05,08,12,21,20.30
2016,05,08,12,22,20.40
2016,05,08,12,23,20.50
2016,05,08,12,24,20.60
2016,05,08,12,25,20.50
2016,05,08,12,26,20.50
2016,05,08,12,27,20.40
2016,05,08,12,28,20.30
2016,05,08,12,29,20.20
2016,05,08,12,30,20.10
2016,05,08,12,31,19.90
2016,05,08,12,32,19.80
2016,05,08,12,33,19.80
2016,05,08,12,34,19.80
2016,05,08,12,35,19.80
2016,05,08,12,36,19.80
2016,05,08,12,37,19.70
2016,05,08,12,38,19.70
2016,05,08,12,39,19.70
2016,05,08,12,40,19.70
2016,05,08,12,41,19.70
2016,05,08,12,42,19.80
2016,05,08,12,43,19.80
2016,05,08,12,44,19.80
2016,05,08,12,45,19.80
2016,05,08,12,46,19.90
2016,05,08,12,47,19.90
2016,05,08,12,48,20.00
2016,05,08,12,49,20.00
2016,05,08,12,50,20.00
2016,05,08,12,51,20.10
2016,05,08,12,52,20.10
2016,05,08,12,53,20.10
2016,05,08,12,54,20.20
2016,05,08,12,55,20.20
2016,05,08,12,56,20.20
2016,05,08,12,57,20.20
2016,05,08,12,58,20.10
2016,05,08,12,59,20.00
2016,05,08,13,00,19.90
2016,05,08,13,01,19.90
2016,05,08,13,02,19.80
2016,05,08,13,03,19.80
2016,05,08,13,04,19.80
2016,05,08,13,05,19.90
2016,05,08,13,06,20.00
2016,05,08,13,07,20.00
2016,05,08,13,08,20.10
2016,05,08,13,09,20.10
2016,05,08,13,10,20.20
2016,05,08,13,11,20.30
2016,05,08,13,12,20.40
2016,05,08,13,13,20.40
2016,05,08,13,14,20.40
2016,05,08,13,15,20.40
2016,05,08,13,16,20.40
2016,05,08,13,17,20.30
2016,05,08,13,18,20.30
2016,05,08,13,19,20.20
2016,05,08,13,20,20.10
2016,05,08,13,21,20.00
2016,05,08,13,22,19.90
2016,05,08,13,23,19.80
2016,05,08,13,24,19.80
2016,05,08,13,25,19.80
2016,05,08,13,26,19.80
2016,05,08,13,27,19.70
2016,05,08,13,28,19.60
2016,05,08,13,29,19.50
2016,05,08,13,30,19.60
2016,05,08,13,31,19.60
2016,05,08,13,32,19.60
2016,05,08,13,33,19.70
2016,05,08,13,34,19.80
2016,05,08,13,35,19.90
2016,05,08,13,36,19.90
2016,05,08,13,37,20.00
2016,05,08,13,38,20.00
2016,05,08,13,39,20.10
2016,05,08,13,40,20.20
2016,05,08,13,41,20.30
2016,05,08,13,42,20.40
2016,05,08,13,43,20.40
2016,05,08,13,44,20.40
2016,05,08,13,45,20.40
2016,05,08,13,46,20.30
2016,05,08,13,47,20.20
2016,05,08,13,48,20.00
2016,05,08,13,49,19.90
2016,05,08,13,50,19.90
2016,05,08,13,51,19.70
2016,05,08,13,52,19.50
2016,05,08,13,53,19.30
2016,05,08,13,54,19.20
2016,05,08,13,55,19.20
2016,05,08,13,56,19.10
2016,05,08,13,57,19.00
2016,05,08,13,58,19.00
2016,05,08,13,59,18.90
2016,05,08,14,00,18.90
2016,05,08,14,01,18.90
2016,05,08,14,02,18.80
2016,05,08,14,03,18.80
2016,05,08,14,04,18.80
2016,05,08,14,05,18.80
2016,05,08,14,06,18.80
2016,05,08,14,07,18.80
2016,05,08,14,08,18.80
2016,05,08,14,09,18.80
2016,05,08,14,10,18.80
2016,05,08,14,11,18.80
2016,05,08,14,12,18.90
2016,05,08,14,13,18.90
2016,05,08,14,14,19.00
2016,05,08,14,15,19.00
2016,05,08,14,16,19.00
2016,05,08,14,17,19.10
2016,05,08,14,18,19.10
2016,05,08,14,19,19.10
2016,05,08,14,20,19.10
2016,05,08,14,21,19.10
2016,05,08,14,22,19.10
2016,05,08,14,23,19.20
2016,05,08,14,24,19.80
2016,05,08,14,25,19.80
2016,05,08,14,26,19.70
2016,05,08,14,27,19.70
2016,05,08,14,28,19.70
2016,05,08,14,29,19.60
2016,05,08,14,30,19.50
2016,05,08,14,31,19.40
2016,05,08,14,32,19.30
2016,05,08,14,33,19.30
2016,05,08,14,34,19.20
2016,05,08,14,35,19.10
2016,05,08,14,36,19.10
2016,05,08,14,37,19.10
2016,05,08,14,38,19.10
2016,05,08,14,39,19.10
2016,05,08,14,40,19.10
2016,05,08,14,41,19.10
2016,05,08,14,42,19.20
2016,05,08,14,43,19.20
2016,05,08,14,44,19.30
2016,05,08,14,45,19.30
2016,05,08,14,46,19.40
2016,05,08,14,47,19.40
2016,05,08,14,48,19.50
2016,05,08,14,49,19.60
2016,05,08,14,50,19.60
2016,05,08,14,51,19.70
2016,05,08,14,52,19.70
2016,05,08,14,53,19.70
2016,05,08,14,54,19.70
2016,05,08,14,55,19.70
2016,05,08,14,56,19.60
2016,05,08,14,57,19.50
2016,05,08,14,58,19.40
2016,05,08,14,59,19.30
2016,05,08,15,00,19.30
2016,05,08,15,01,19.20
2016,05,08,15,02,19.20
2016,05,08,15,03,19.20
2016,05,08,15,04,19.10
2016,05,08,15,05,19.10
2016,05,08,15,06,19.10
2016,05,08,15,07,19.00
2016,05,08,15,08,18.90
2016,05,08,15,09,18.90
2016,05,08,15,10,18.90
2016,05,08,15,11,18.90
2016,05,08,15,12,18.90
2016,05,08,15,13,18.90
2016,05,08,15,14,18.90
2016,05,08,15,15,18.90
2016,05,08,15,16,19.00
2016,05,08,15,17,19.10
2016,05,08,15,18,19.10
2016,05,08,15,19,19.10
2016,05,08,15,20,19.10
2016,05,08,15,21,19.10
2016,05,08,15,22,18.90
2016,05,08,15,23,18.90
2016,05,08,15,24,18.80
2016,05,08,15,25,18.70
2016,05,08,15,26,18.60
2016,05,08,15,27,18.50
2016,05,08,15,28,18.40
2016,05,08,15,29,18.30
2016,05,08,15,30,18.30
2016,05,08,15,31,18.30
2016,05,08,15,32,18.30
2016,05,08,15,33,18.30
2016,05,08,15,34,18.30
2016,05,08,15,35,18.30
2016,05,08,15,36,18.30
2016,05,08,15,37,18.40
2016,05,08,15,38,18.40
2016,05,08,15,39,18.40
2016,05,08,15,40,18.50
2016,05,08,15,41,18.50
2016,05,08,15,42,18.60
2016,05,08,15,43,18.60
2016,05,08,15,44,18.60
2016,05,08,15,45,18.50
2016,05,08,15,46,18.40
2016,05,08,15,47,18.30
2016,05,08,15,48,18.30
2016,05,08,15,49,18.20
2016,05,08,15,50,18.10
2016,05,08,15,51,18.00
2016,05,08,15,52,17.90
2016,05,08,15,53,17.80
2016,05,08,15,54,17.70
2016,05,08,15,55,17.60
2016,05,08,15,56,17.50
2016,05,08,15,57,17.40
2016,05,08,15,58,17.30
2016,05,08,15,59,17.20
2016,05,08,16,00,17.20
2016,05,08,16,01,17.10
2016,05,08,16,02,17.00
2016,05,08,16,03,16.90
2016,05,08,16,04,16.80
2016,05,08,16,05,16.80
2016,05,08,16,06,16.70
2016,05,08,16,07,16.60
2016,05,08,16,08,16.60
2016,05,08,16,09,16.50
2016,05,08,16,10,16.40
2016,05,08,16,11,16.40
2016,05,08,16,12,16.30
2016,05,08,16,13,16.30
2016,05,08,16,14,16.20
2016,05,08,16,15,16.20
2016,05,08,16,16,16.10
2016,05,08,16,17,16.10
2016,05,08,16,18,16.10
2016,05,08,16,19,16.00
2016,05,08,16,20,16.00
2016,05,08,16,21,16.00
2016,05,08,16,22,15.90
2016,05,08,16,23,15.90
2016,05,08,16,24,15.90
2016,05,08,16,25,15.80
2016,05,08,16,26,15.80
2016,05,08,16,27,15.80
2016,05,08,16,28,15.80
2016,05,08,16,29,15.80
2016,05,08,16,30,15.70
2016,05,08,16,31,15.60
2016,05,08,16,32,15.60
2016,05,08,16,33,15.50
2016,05,08,16,34,15.40
2016,05,08,16,35,15.40
2016,05,08,16,36,15.40
2016,05,08,16,37,15.30
2016,05,08,16,38,15.30
2016,05,08,16,39,15.30
2016,05,08,16,40,15.20
2016,05,08,16,41,15.10
2016,05,08,16,42,15.10
2016,05,08,16,43,15.00
2016,05,08,16,44,15.00
2016,05,08,16,45,15.00
2016,05,08,16,46,15.00
2016,05,08,16,47,15.00
2016,05,08,16,48,14.90
2016,05,08,16,49,14.80
2016,05,08,16,50,14.70
2016,05,08,16,51,14.70
2016,05,08,16,52,14.50
2016,05,08,16,53,14.40
2016,05,08,16,54,14.20
2016,05,08,16,55,14.00
2016,05,08,16,56,13.90
2016,05,08,16,57,13.80
2016,05,08,16,58,13.60
2016,05,08,16,59,13.40
2016,05,08,17,00,13.30
2016,05,08,17,01,13.20
2016,05,08,17,02,13.10
2016,05,08,17,03,13.00
2016,05,08,17,04,12.90
2016,05,08,17,05,12.90
2016,05,08,17,06,12.70
2016,05,08,17,07,12.60
2016,05,08,17,08,12.50
2016,05,08,17,09,12.40
2016,05,08,17,10,12.30
2016,05,08,17,11,12.20
2016,05,08,17,12,12.20
2016,05,08,17,13,12.20
2016,05,08,17,14,12.20
2016,05,08,17,15,12.20
2016,05,08,17,16,12.20
2016,05,08,17,17,12.20
2016,05,08,17,18,12.20
2016,05,08,17,19,12.20
2016,05,08,17,20,12.20
2016,05,08,17,21,12.20
2016,05,08,18,03,10.70
2016,05,08,18,04,10.70
2016,05,08,18,05,10.70